CW5619 Weather Reports


Display with metric or nautical units.
time (UTC)temp
F
wind
direction
speed
MPH
gust
MPH
rain 1hr
in
rain 24hr
in
rain mn
in
humidity
%
barometer
mb
20260903110903 81 111 1.0 6.0 0.00 0.00 0.00 63 1014.3
20260903110402 81 121 1.0 6.0 0.00 0.00 0.00 63 1014.3
20260903105903 81 136 2.0 6.0 0.00 0.00 0.00 63 1014.2
20260903105403 81 119 1.0 6.0 0.00 0.00 0.00 63 1014.3
20260903104903 81 136 2.0 6.0 0.00 0.00 0.00 63 1014.3
20260903104403 81 101 1.0 6.0 0.00 0.00 0.00 63 1014.3
20260903103903 81 97 2.0 7.0 0.00 0.00 0.00 63 1014.4
20260903103403 81 123 2.0 7.0 0.00 0.00 0.00 63 1014.5
20260903102403 82 112 1.0 6.0 0.00 0.00 0.00 62 1014.4
20260903101902 82 127 2.0 5.0 0.00 0.00 0.00 62 1014.4
20260903100903 82 110 2.0 6.0 0.00 0.00 0.00 61 1014.4
20260903100402 82 117 1.0 3.0 0.00 0.00 0.00 61 1014.4
20260903095403 82 114 0.0 2.0 0.00 0.00 0.00 61 1014.3
20260903094902 82 93 0.0 1.0 0.00 0.00 0.00 62 1014.4
20260903094403 82 90 0.0 1.0 0.00 0.00 0.00 62 1014.4
20260903093903 82 90 0.0 1.0 0.00 0.00 0.00 62 1014.4
20260903093402 82 90 0.0 1.0 0.00 0.00 0.00 61 1014.4
20260903092903 83 90 0.0 1.0 0.00 0.00 0.00 61 1014.5
20260903092403 82 90 0.0 1.0 0.00 0.00 0.00 61 1014.5
20260903091903 83 90 0.0 1.0 0.00 0.00 0.00 60 1014.5
20260903090405 83 90 0.0 1.0 0.00 0.00 0.00 58 1014.6
20260903085902 83 90 0.0 1.0 0.00 0.00 0.00 57 1014.7
20260903085402 83 90 0.0 1.0 0.00 0.00 0.00 57 1014.7
20260903084903 83 90 0.0 1.0 0.00 0.00 0.00 56 1014.6
20260903083902 84 90 0.0 1.0 0.00 0.00 0.00 56 1014.7
20260903083403 84 90 0.0 1.0 0.00 0.00 0.00 55 1014.7
20260903082902 84 90 0.0 1.0 0.00 0.00 0.00 54 1014.7
20260903082405 84 89 0.0 1.0 0.00 0.00 0.00 54 1014.8
20260903081903 84 215 0.0 1.0 0.00 0.00 0.00 53 1014.8
20260903080902 84 254 0.0 3.0 0.00 0.00 0.00 53 1014.8
20260903080403 84 246 0.0 3.0 0.00 0.00 0.00 53 1014.8
20260903075902 84 120 1.0 3.0 0.00 0.00 0.00 54 1014.8
20260903075402 84 114 1.0 3.0 0.00 0.00 0.00 53 1014.8
20260903074903 84 188 1.0 3.0 0.00 0.00 0.00 54 1014.9
20260903073902 84 221 0.0 3.0 0.00 0.00 0.00 54 1014.9
20260903072903 85 223 2.0 3.0 0.00 0.00 0.00 54 1014.8
20260903072402 85 228 2.0 3.0 0.00 0.00 0.00 53 1014.8
20260903071902 85 245 1.0 3.0 0.00 0.00 0.00 53 1014.8
20260903070403 85 241 1.0 3.0 0.00 0.00 0.00 54 1014.8
20260903065402 85 246 0.0 1.0 0.00 0.00 0.00 54 1014.6
20260903064903 85 246 0.0 2.0 0.00 0.00 0.00 54 1014.6
20260903064402 85 246 0.0 2.0 0.00 0.00 0.00 54 1014.5
20260903063902 85 246 1.0 2.0 0.00 0.00 0.00 55 1014.5
20260903063402 85 259 0.0 2.0 0.00 0.00 0.00 54 1014.5
20260903062403 85 296 0.0 1.0 0.00 0.00 0.00 54 1014.5
20260903061902 85 275 0.0 3.0 0.00 0.00 0.00 54 1014.6
20260903061402 85 231 1.0 3.0 0.00 0.00 0.00 54 1014.6
20260903060402 85 249 0.0 3.0 0.00 0.00 0.00 53 1014.6
20260903055903 85 238 0.0 3.0 0.00 0.00 0.00 52 1014.7
20260903055402 85 260 0.0 2.0 0.00 0.00 0.00 52 1014.7
20260903054903 86 260 0.0 2.0 0.00 0.00 0.00 51 1014.8
20260903054403 85 260 0.0 3.0 0.00 0.00 0.00 52 1014.8
20260903052402 86 71 0.0 2.0 0.00 0.00 0.00 52 1014.9
20260903051907 86 71 0.0 3.0 0.00 0.00 0.00 52 1014.8
20260903051402 86 83 1.0 3.0 0.00 0.00 0.00 51 1014.8
20260903050902 86 87 1.0 2.0 0.00 0.00 0.00 51 1014.8
20260903044402 87 204 0.0 3.0 0.00 0.00 0.00 50 1014.6
20260903043903 87 175 1.0 3.0 0.00 0.00 0.00 50 1014.6
20260903043403 87 140 1.0 5.0 0.00 0.00 0.00 50 1014.6
20260903042903 87 109 1.0 5.0 0.00 0.00 0.00 50 1014.5
20260903042403 87 118 1.0 5.0 0.00 0.00 0.00 49 1014.6
20260903041902 87 179 1.0 5.0 0.00 0.00 0.00 48 1014.6
20260903040903 87 105 2.0 5.0 0.00 0.00 0.00 48 1014.4
20260903040402 87 111 1.0 6.0 0.00 0.00 0.00 48 1014.3
20260903034903 88 112 2.0 6.0 0.00 0.00 0.00 48 1014.0
20260903034402 88 103 2.0 7.0 0.00 0.00 0.00 47 1014.0
20260903033903 88 114 2.0 7.0 0.00 0.00 0.00 46 1014.0
20260903031904 88 80 2.0 3.0 0.00 0.00 0.00 43 1013.6
20260903030902 89 130 1.0 3.0 0.00 0.00 0.00 42 1013.5
20260903030402 89 94 0.0 3.0 0.00 0.00 0.00 43 1013.4
20260903025903 89 103 1.0 3.0 0.00 0.00 0.00 42 1013.4
20260903025402 89 109 1.0 2.0 0.00 0.00 0.00 41 1013.4
20260903024403 90 99 1.0 2.0 0.00 0.00 0.00 40 1013.3
20260903023402 90 121 0.0 2.0 0.00 0.00 0.00 38 1013.2
20260903022903 90 131 0.0 3.0 0.00 0.00 0.00 38 1013.2
20260903022403 90 182 0.0 3.0 0.00 0.00 0.00 38 1013.2
20260903021403 90 168 0.0 3.0 0.00 0.00 0.00 39 1013.1
20260903020903 90 131 1.0 3.0 0.00 0.00 0.00 42 1013.1
20260903020403 90 117 2.0 3.0 0.00 0.00 0.00 43 1013.2
20260903015403 91 93 1.0 2.0 0.00 0.00 0.00 40 1013.1
20260903014903 92 98 1.0 2.0 0.00 0.00 0.00 37 1013.0
20260903014403 92 125 0.0 2.0 0.00 0.00 0.00 35 1013.1
20260903013902 92 238 0.0 2.0 0.00 0.00 0.00 35 1013.0
20260903013402 92 238 0.0 3.0 0.00 0.00 0.00 34 1012.9
20260903012903 93 235 2.0 3.0 0.00 0.00 0.00 35 1012.9
20260903012403 93 274 1.0 2.0 0.00 0.00 0.00 34 1012.9
20260903011903 93 280 0.0 2.0 0.00 0.00 0.00 34 1012.8
20260903011403 93 251 1.0 5.0 0.00 0.00 0.00 34 1012.8
20260903005902 93 233 2.0 5.0 0.00 0.00 0.00 34 1012.8
20260903005402 93 250 2.0 6.0 0.00 0.00 0.00 34 1012.8
20260903004402 93 230 2.0 3.0 0.00 0.00 0.00 37 1012.8
20260903003903 94 184 1.0 3.0 0.00 0.00 0.00 38 1012.9
20260903003403 94 231 1.0 5.0 0.00 0.00 0.00 39 1013.1
20260903001902 94 242 1.0 6.0 0.00 0.00 0.00 39 1013.0
20260903001403 94 307 2.0 6.0 0.00 0.00 0.00 38 1013.1
20260903000403 94 255 1.0 6.0 0.00 0.00 0.00 38 1013.0
20260902235403 94 335 1.0 3.0 0.00 0.00 0.00 38 1013.1
20260902234902 94 232 0.0 3.0 0.00 0.00 0.00 38 1013.1
20260902234403 94 335 0.0 3.0 0.00 0.00 0.00 38 1013.1
20260902232402 94 327 2.0 6.0 0.00 0.00 0.00 38 1013.1
20260902230902 95 276 1.0 3.0 0.00 0.00 0.00 36 1013.2
20260902224903 95 319 1.0 5.0 0.00 0.00 0.00 36 1013.5
20260902224403 95 204 1.0 5.0 0.00 0.00 0.00 36 1013.5
20260902223902 96 278 1.0 6.0 0.00 0.00 0.00 35 1013.5
20260902223403 95 165 2.0 6.0 0.00 0.00 0.00 35 1013.6
20260902222403 96 208 2.0 8.0 0.00 0.00 0.00 36 1013.7
20260902221903 96 2 2.0 7.0 0.00 0.00 0.00 36 1013.7
20260902220902 96 354 2.0 8.0 0.00 0.00 0.00 37 1013.8
20260902220403 96 280 3.0 8.0 0.00 0.00 0.00 36 1014.0
20260902215406 96 227 2.0 9.0 0.00 0.00 0.00 37 1014.1
20260902214902 96 246 1.0 10.0 0.00 0.00 0.00 38 1014.2
20260902214403 97 215 4.0 10.0 0.00 0.00 0.00 37 1014.3
20260902213903 98 31 2.0 10.0 0.00 0.00 0.00 37 1014.2
20260902213402 98 224 3.0 10.0 0.00 0.00 0.00 36 1014.0
20260902212902 98 241 3.0 8.0 0.00 0.00 0.00 38 1014.2
20260902212403 99 318 3.0 8.0 0.00 0.00 0.00 36 1014.2
20260902211903 99 240 2.0 8.0 0.00 0.00 0.00 37 1014.3
20260902211402 98 124 3.0 8.0 0.00 0.00 0.00 37 1014.4
20260902210902 98 231 3.0 8.0 0.00 0.00 0.00 36 1014.4
20260902210404 98 10 2.0 9.0 0.00 0.00 0.00 35 1014.5
20260902205403 98 218 2.0 9.0 0.00 0.00 0.00 37 1014.6
20260902204903 98 41 5.0 9.0 0.00 0.00 0.00 37 1014.6
20260902204403 98 238 2.0 9.0 0.00 0.00 0.00 37 1014.7
20260902203903 97 247 3.0 5.0 0.00 0.00 0.00 39 1014.8
20260902203411 98 184 3.0 7.0 0.00 0.00 0.00 37 1014.7
20260902202903 98 280 2.0 8.0 0.00 0.00 0.00 36 1014.8
20260902202402 98 10 3.0 8.0 0.00 0.00 0.00 37 1014.8
20260902201402 97 198 2.0 12.0 0.00 0.00 0.00 37 1014.9
20260902195902 97 229 2.0 6.0 0.00 0.00 0.00 38 1015.3
20260902195403 98 35 2.0 6.0 0.00 0.00 0.00 37 1015.3
20260902194903 97 324 2.0 7.0 0.00 0.00 0.00 39 1015.4
20260902193903 97 191 2.0 5.0 0.00 0.00 0.00 38 1015.8
20260902193403 97 242 2.0 8.0 0.00 0.00 0.00 38 1015.8
20260902192902 96 198 2.0 9.0 0.00 0.00 0.00 38 1015.8
20260902192404 96 240 3.0 9.0 0.00 0.00 0.00 39 1015.9
20260902191403 95 352 1.0 6.0 0.00 0.00 0.00 41 1016.1
20260902190407 95 277 3.0 6.0 0.00 0.00 0.00 42 1016.3
20260902183902 94 222 2.0 9.0 0.00 0.00 0.00 43 1016.6
20260902183403 95 231 2.0 7.0 0.00 0.00 0.00 41 1016.7
20260902181903 94 224 1.0 9.0 0.00 0.00 0.00 42 1017.0
20260902181403 93 234 2.0 12.0 0.00 0.00 0.00 44 1017.0
20260902180903 93 228 4.0 12.0 0.00 0.00 0.00 43 1017.1
20260902180402 94 347 1.0 5.0 0.00 0.00 0.00 43 1017.1
20260902173903 92 236 2.0 5.0 0.00 0.00 0.00 44 1017.1
20260902173403 91 26 2.0 5.0 0.00 0.00 0.00 45 1017.1
20260902172903 91 235 2.0 3.0 0.00 0.00 0.00 45 1017.1
20260902171902 92 233 1.0 3.0 0.00 0.00 0.00 45 1017.2
20260902171403 92 303 1.0 8.0 0.00 0.00 0.00 45 1017.2
20260902170902 91 15 1.0 8.0 0.00 0.00 0.00 46 1017.2
20260902164402 90 71 0.0 3.0 0.00 0.00 0.00 47 1017.1
20260902162403 88 203 1.0 3.0 0.00 0.00 0.00 51 1017.2
20260902161907 88 187 1.0 3.0 0.00 0.00 0.00 51 1017.3
20260902160903 87 150 1.0 3.0 0.00 0.00 0.00 51 1017.2
20260902160403 88 151 1.0 3.0 0.00 0.00 0.00 52 1017.2
20260902155403 87 193 0.0 3.0 0.00 0.00 0.00 53 1017.2
20260902154903 87 56 1.0 3.0 0.00 0.00 0.00 53 1017.2
20260902154403 86 72 1.0 3.0 0.00 0.00 0.00 54 1017.2
20260902153902 86 107 0.0 3.0 0.00 0.00 0.00 55 1017.2
20260902153403 85 81 1.0 3.0 0.00 0.00 0.00 55 1017.2
20260902152403 84 174 1.0 3.0 0.00 0.00 0.00 57 1017.1
20260902151904 84 98 1.0 3.0 0.00 0.00 0.00 57 1017.0
20260902150903 83 119 1.0 3.0 0.00 0.00 0.00 59 1017.0
20260902150402 83 72 1.0 3.0 0.00 0.00 0.00 60 1017.0
20260902145419 83 102 1.0 3.0 0.00 0.00 0.00 61 1016.9
20260902144903 82 124 2.0 3.0 0.00 0.00 0.00 62 1017.0
20260902143903 81 108 0.0 3.0 0.00 0.00 0.00 65 1017.0
20260902143403 80 105 1.0 2.0 0.00 0.00 0.00 67 1017.0
20260902141403 78 115 0.0 1.0 0.00 0.00 0.00 72 1016.9
20260902140903 77 78 0.0 0.0 0.00 0.00 0.00 74 1016.9
20260902133902 75 78 0.0 2.0 0.00 0.00 0.00 77 1016.6
20260902133402 74 78 1.0 2.0 0.00 0.00 0.00 78 1016.6
20260902132903 74 82 0.0 2.0 0.00 0.00 0.00 77 1016.4
20260902132402 74 101 0.0 1.0 0.00 0.00 0.00 77 1016.4
20260902131903 74 101 0.0 1.0 0.00 0.00 0.00 77 1016.4
20260902131402 74 101 0.0 1.0 0.00 0.00 0.00 77 1016.3
20260902130902 74 101 0.0 0.0 0.00 0.00 0.00 77 1016.3
20260902130403 74 101 0.0 0.0 0.00 0.00 0.00 77 1016.3
20260902125903 74 101 0.0 0.0 0.00 0.00 0.00 78 1016.2
20260902125403 74 101 0.0 1.0 0.00 0.00 0.00 78 1016.2
20260902124903 74 101 0.0 1.0 0.00 0.00 0.00 78 1016.2
20260902124403 74 101 0.0 1.0 0.00 0.00 0.00 78 1016.1
20260902123903 74 101 0.0 1.0 0.00 0.00 0.00 77 1016.1
20260902123403 74 101 0.0 0.0 0.00 0.00 0.00 77 1016.0
20260902122903 74 101 0.0 0.0 0.00 0.00 0.00 77 1016.0
20260902122403 74 101 0.0 0.0 0.00 0.00 0.00 77 1016.0
20260902121403 75 101 0.0 0.0 0.00 0.00 0.00 76 1016.0
20260902120903 75 101 0.0 0.0 0.00 0.00 0.00 76 1016.0
20260902115903 75 101 0.0 1.0 0.00 0.00 0.00 76 1015.9
20260902115403 75 125 0.0 1.0 0.00 0.00 0.00 76 1015.8
20260902114903 75 125 0.0 0.0 0.00 0.00 0.00 75 1015.8
20260902113903 75 125 0.0 0.0 0.00 0.00 0.00 75 1015.8
20260902113403 75 125 0.0 1.0 0.00 0.00 0.00 75 1015.8
20260902112903 75 125 0.0 1.0 0.00 0.00 0.00 75 1015.8
20260902112403 76 130 0.0 1.0 0.00 0.00 0.00 74 1015.8
20260902111403 76 163 0.0 3.0 0.00 0.00 0.00 75 1015.8